Location: Carnières
(50.1682°N, 3.3474°E)
Time: 05:58:50
(UTC+00:00)

MOZ.5/SAFIR/RUBIN 5/SL-8 - Pass Details

Date: 15 August 2024
Orbit: 671 x 698 km, 98.3° (Epoch: 08 September)

Event Time Altitude Azimuth Distance (km) Brightness Sun altitude
Exits shadow 01:55:54 40° 250° (WSW) 1,032 4.3 -20.3°
Maximum altitude 01:56:17 40° 262° (W) 1,020 4.3 -20.3°
Drops below altitude 10° 02:00:46 10° 333° (NNW) 2,170 6.7 -19.9°
Sets 02:03:09 0° 340° (NNW) 3,094 7.7 -19.7°
